Regional Weather Roundup
Issued by NWS

Home | Current Version | Previous Version | Graphics & Text | Print | Product List | Glossary On
Versions: 1 2 3 4 5 6 7 8 9 10 11 12 13 14 15 16 17 18 19 20 21 22 23 24 25 26 27 28 29 30 31 32 33 34 35 36 37 38 39 40 41 42 43 44 45 46 47 48 49 50
000
ASUS45 KBOU 040407
RWRCO

WEATHER ROUNDUP FOR COLORADO
NATIONAL WEATHER SERVICE DENVER/BOULDER CO
1000 PM MDT TUE MAY 03 2016

NOTE: "FAIR" INDICATES FEW OR NO CLOUDS BELOW 12000 FEET WITH NO
SIGNIFICANT WEATHER AND/OR OBSTRUCTIONS TO VISIBILITY.

COZ001>005-013-030-031-040500-
...NORTHWEST COLORADO...

CITY           SKY/WX    TMP DP  RH WIND       PRES   REMARKS
CRAIG          FAIR      44  34  67 CALM      30.26R
HAYDEN         FAIR      50  28  43 SW5       30.28R
MEEKER         FAIR      48  31  51 W6        30.27R
MOUNT WERNER   NOT AVBL
STEAMBOAT SPGS FAIR      50  31  49 CALM      30.29R
WALDEN         FAIR      41  27  56 CALM      30.37R
$$

COZ006>008-011-040500-
...WEST CENTRAL VALLEYS...

CITY           SKY/WX    TMP DP  RH WIND       PRES   REMARKS
GRAND JUNCTION FAIR      58  35  42 NE8       30.15R
MONTROSE       FAIR      55  30  38 SE12      30.23R
EAGLE          FAIR      52  27  37 NE3       30.29R
RIFLE          FAIR      55  31  39 SW5       30.21R
DELTA          NOT AVBL
NUCLA          NOT AVBL
$$

COZ017>023-064>068-040500-
...SOUTHWEST COLORADO...

CITY           SKY/WX    TMP DP  RH WIND       PRES   REMARKS
DURANGO        FAIR      52  35  52 N3        30.27R
CORTEZ         FAIR      51  31  46 CALM      30.23R
PAGOSA SPRINGS FAIR      47  31  55 CALM      30.33R
TELLURIDE      FAIR      47  22  37 SE5       30.39R
WOLF CREEK PAS FAIR      32  21  64 SW9       30.54R WCI  24
$$

COZ009-010-012-014-032>034-037-058>063-040500-
...CENTRAL COLORADO...

CITY           SKY/WX    TMP DP  RH WIND       PRES   REMARKS
ASPEN          FAIR      45  24  43 S12       30.32R
BUENA VISTA    FAIR      43  24  48 W6        30.36R
COPPER MTN     NOT AVBL
BERTHOUD PASS  FAIR      28  19  69 NW16      30.53R WCI  17
COTTONWOOD PAS FAIR      45   9  23 W3        30.43R
GUNNISON       FAIR      48  19  32 CALM      30.34R
KREMMLING      FAIR      46  21  36 SW5       30.33R
LEADVILLE      FAIR      32  17  54 NE6       30.42R WCI  26
MONARCH PASS   FAIR      32  18  55 MISG      30.62R
SALIDA         FAIR      47  25  42 SW9       30.40R
SUNLIGHT       FAIR      43  23  45 NW3       30.50R
WILKERSON PASS FAIR      32  19  59 SE6       30.52R WCI  26
$$

COZ069>075-040500-
...SAN LUIS VALLEY/SANGRE DE CRISTO MOUNTAINS...

CITY           SKY/WX    TMP DP  RH WIND       PRES   REMARKS
ALAMOSA        FAIR      43  27  53 SE8       30.32R
LA VETA PASS   FAIR      36  21  55 CALM      30.45R
SAGUACHE       FAIR      43  28  56 N9        30.34R
$$

COZ035-036-038>040-040500-
...NORTHERN COLORADO FRONT RANGE...

CITY           SKY/WX    TMP DP  RH WIND       PRES   REMARKS
DENVER INTL AP FAIR      55  33  43 W6        30.25R
DMNS CITY PARK   N/A     52  33  48 SW2G8     30.25S
AURORA         FAIR      53  33  47 SW3       30.27R
FRONT RANGE AP NOT AVBL
ERIE MUNI ARPT FAIR      48  37  65 S3        30.25R
BOULDER MUN AP FAIR      54  30  40 SW6       30.25R
CENTENNIAL     FAIR      50  30  46 S3        30.27R
BROOMFIELD     CLEAR     52  30  43 W9        30.27R
FORT COLLINS   FAIR      55  36  47 CALM      30.25R
LONGMONT       FAIR      53  34  49 W8        30.26R HAZE
$$

COZ041-046-047-076>085-087-088-040500-
...PIKES PEAK/PALMER DIVIDE AND SOUTHERN FOOTHILLS...

CITY           SKY/WX    TMP DP  RH WIND       PRES   REMARKS
COLO. SPRINGS  FAIR      50  28  42 W5        30.30R
A. F. ACADEMY  FAIR      41  27  56 N9        30.31R
SCHRIEVER AFB  NOT AVBL
ELLICOTT       FAIR     N/A N/A N/A NW6       30.28R
FALCON         FAIR      43  29  57 NW6       30.32S
FORT CARSON    FAIR      46  28  48 NW8       30.27R
LIMON          FAIR      41  37  86 N3        30.24R
MONUMENT HILL  FAIR      43  28  56 N5        30.33S
TRINIDAD       FAIR      46  32  58 W9        30.27R
$$

COZ042>045-048>051-090-091-040500-
...NORTHEAST COLORADO...

CITY           SKY/WX    TMP DP  RH WIND       PRES   REMARKS
GREELEY ARPT   FAIR      52  37  58 NW6       30.22R
AKRON          FAIR      51  29  42 CALM      30.19R
BURLINGTON     FAIR      44  36  73 W7        30.17R
WRAY           NOT AVBL
STERLING       FAIR      46  36  66 CALM      30.16R
HOLYOKE        NOT AVBL
FORT MORGAN    FAIR      51  37  59 N9        30.20R
$$

COZ086-089-092>099-040500-
...SOUTHEAST COLORADO...

CITY           SKY/WX    TMP DP  RH WIND       PRES   REMARKS
PUEBLO         FAIR      53  35  50 N10       30.22R
LA JUNTA       FAIR      56  34  43 N5        30.19R
LAMAR          FAIR      46  35  65 SW8       30.15R
SPRINGFIELD      N/A     44  33  65 W8        30.19R
$$



USA.gov is the U.S. government's official web portal to all federal, state and local government web resources and services.